Location: Cerezo de Arriba
(41.2389°N, 3.5585°W)
Time: 03:27:12
(UTC+00:00)

DEBRIS - Pass Details

Date: 19 May 2025
Orbit: 278 x 14610 km, 49.5° (Epoch: 23 June)

Event Time Altitude Azimuth Distance (km) Brightness Sun altitude
Rises 20:31:52 0° 302° (WNW) 6,570 10.4 -10.5°
Reaches altitude 10° 20:38:04 10° 299° (WNW) 3,880 8.6 -11.5°
Maximum altitude 20:45:19 46° 228° (SW) 839 3.8 -12.5°
Enters shadow 20:47:16 19° 160° (SSE) 1,150 3.9 -12.8°
